[[{"header":{"parameterUnit":"m.s-1","parameterCategory":1,"la1":30.2991,"la2":30.254,"lo1":-89.0895,"lo2":-89.0444,"dy":0.0017,"dx":0.0017,"nx":28,"ny":28,"refTime":"2024-08-03T03:00:00:Z","depth":0,"parameterNumber":2,"parameterNumberName":"U-component_of_WINDS"},"data":[0,0,0,0,0,0,0,0,0,0,0,0,0,0,0,0,0,0,0,0,0,0,0,0,0,0,0,0,0,0,0,0,0,0,0,0,0,0,0,0,0,0,0,0,0,0,0,0,0,0,0,0,0,0,0,0,0,0,-0.1762,-0.1763,0,-0.1856,-0.1857,-0.1858,-0.1918,-0.1918,-0.1918,-0.1919,-0.2015,-0.2017,-0.2019,0,0,0,0,0,0,0,0,0,0,0,0,0,-0.1633,-0.1635,-0.1761,-0.1763,-0.1764,-0.1856,-0.1857,-0.1859,-0.1918,-0.1918,-0.1919,-0.1919,-0.2014,-0.2017,-0.2019,0,0,0,0,0,0,0,0,0,0,0,0,0,-0.1704,-0.1635,-0.1761,-0.1804,-0.1809,-0.1856,-0.1858,-0.1859,-0.1918,-0.1918,-0.1919,-0.1919,-0.2013,-0.2017,-0.202,-0.2031,0,0,-0.203,-0.2032,0,0,0,0,0,0,0,0,-0.17,-0.1709,-0.1797,-0.1802,-0.1807,-0.1876,-0.1847,-0.1917,-0.1918,-0.1876,-0.1919,-0.1919,-0.1968,-0.1975,-0.1992,-0.2035,-0.2039,-0.203,-0.2032,-0.2034,-0.2035,0,0,0,0,0,0,0,-0.1695,-0.1705,-0.1799,-0.1798,-0.1804,-0.182,-0.183,-0.1861,-0.1918,-0.188,-0.1885,-0.1895,-0.1971,-0.1988,-0.1995,-0.2041,-0.203,-0.2033,-0.2035,-0.2037,-0.21,-0.21,0,0,0,0,0,0,-0.1683,-0.1701,-0.1796,-0.1802,-0.1754,-0.1821,-0.1833,-0.1853,-0.1918,-0.1929,-0.1895,-0.1897,-0.1982,-0.1991,-0.1998,-0.2016,-0.2034,-0.2037,-0.2039,-0.21,-0.21,-0.21,0,0,0,0,0,0,-0.168,-0.1691,-0.1792,-0.1753,-0.1767,-0.1823,-0.1845,-0.1855,-0.1872,-0.1929,-0.194,-0.1902,-0.1983,-0.1993,-0.2023,-0.202,-0.2039,-0.2042,-0.2101,-0.21,-0.21,-0.2052,0,0,0,0,0,0,-0.1676,-0.169,-0.1694,-0.1752,-0.1768,-0.1814,-0.1845,-0.1856,-0.1878,-0.1883,-0.1939,-0.1948,-0.1984,-0.2017,-0.2026,-0.2025,-0.2044,-0.2101,-0.2101,-0.21,-0.2054,-0.2049,-0.2046,0,0,0,0,0,-0.1671,-0.1676,-0.1694,-0.1705,-0.1775,-0.1814,-0.1824,-0.1865,-0.1878,-0.1883,-0.192,-0.1947,-0.202,-0.202,-0.203,-0.203,-0.2102,-0.2101,-0.21,-0.2055,-0.205,-0.2046,0,0,0,0,0,0,-0.1615,-0.1684,-0.1705,-0.1728,-0.1765,-0.1824,-0.1831,-0.1858,-0.1892,-0.1895,-0.1945,-0.1957,-0.1982,-0.2009,-0.2008,-0.2046,-0.2064,-0.2065,-0.2026,-0.2022,-0.2018,-0.2011,-0.2047,0,0,0,0,0,-0.1605,-0.1631,-0.1691,-0.1706,-0.1723,-0.1774,-0.1793,-0.1822,-0.1862,-0.1878,-0.1917,-0.1954,-0.1986,-0.2006,-0.2038,-0.2059,-0.2072,-0.2064,-0.206,-0.2057,-0.2057,-0.2072,-0.2069,-0.2097,-0.2097,-0.2097,0,0,-0.1585,-0.1627,-0.164,-0.1695,-0.1727,-0.1754,-0.1787,-0.1813,-0.1833,-0.1882,-0.1912,-0.1942,-0.1988,-0.2013,-0.2026,-0.2037,-0.2053,-0.2056,-0.2053,-0.2055,-0.207,-0.2068,-0.2065,-0.2097,-0.2097,-0.2097,0,0,-0.1562,-0.1596,-0.1613,-0.1645,-0.1693,-0.1727,-0.1731,-0.1787,-0.1809,-0.1841,-0.1879,-0.1904,-0.1957,-0.1988,-0.2011,-0.2004,-0.203,-0.2013,-0.1992,-0.2006,-0.2004,-0.2002,-0.2,-0.1998,-0.2013,-0.2013,-0.2013,0,-0.1531,-0.1572,-0.1618,-0.1642,-0.1666,-0.1713,-0.1731,-0.1759,-0.1816,-0.1831,-0.1843,-0.1912,-0.1946,-0.198,-0.1978,-0.1995,-0.2002,-0.2006,-0.2,-0.1999,-0.1998,-0.1997,-0.1996,-0.201,-0.2011,-0.2011,-0.2011,0,-0.1532,-0.156,-0.1568,-0.1622,-0.1647,-0.1668,-0.1717,-0.1737,-0.1765,-0.1799,-0.1831,-0.1874,-0.1917,-0.1927,-0.1954,-0.1966,-0.1971,-0.1991,-0.201,-0.1992,-0.1992,-0.1991,-0.2007,-0.2008,-0.2009,-0.2009,0,0,-0.1473,-0.1555,-0.1556,-0.1582,-0.1641,-0.1663,-0.1687,-0.173,-0.1746,-0.1784,-0.1806,-0.1852,-0.1871,-0.1897,-0.1928,-0.194,-0.1933,-0.1959,-0.1961,-0.1953,-0.195,-0.1934,-0.1933,-0.1952,-0.1952,-0.1952,-0.1946,0,-0.1459,-0.1504,-0.1547,-0.1577,-0.1604,-0.165,-0.1671,-0.171,-0.1742,-0.1771,-0.1807,-0.1839,-0.1862,-0.1878,-0.1892,-0.193,-0.1933,-0.1932,-0.1973,-0.1973,-0.1959,-0.1932,-0.1915,-0.1908,-0.1946,-0.1946,-0.1946,0,-0.1447,-0.1484,-0.1516,-0.1574,-0.1587,-0.1605,-0.1649,-0.1675,-0.172,-0.1744,-0.1774,-0.1808,-0.1837,-0.1854,-0.1895,-0.1893,-0.1913,-0.1935,-0.1936,-0.194,-0.1958,-0.1936,-0.1907,-0.1905,-0.1946,-0.1946,-0.1946,0,-0.1401,-0.1459,-0.1487,-0.1507,-0.1575,-0.1587,-0.1616,-0.1662,-0.1685,-0.1724,-0.174,-0.1781,-0.1803,-0.1834,-0.1879,-0.1887,-0.1916,-0.1936,-0.1936,-0.1935,-0.1938,-0.1937,-0.1911,-0.1952,-0.1952,-0.1952,-0.1952,0,-0.138,-0.1398,-0.1467,-0.1484,-0.1506,-0.1557,-0.1577,-0.1611,-0.1652,-0.1676,-0.1719,-0.1742,-0.1799,-0.1829,-0.1864,-0.1894,-0.1903,-0.1923,-0.1932,-0.1919,-0.1916,-0.1932,-0.1933,-0.1952,-0.1952,-0.1952,-0.1952,0,-0.1331,-0.1379,-0.1412,-0.1474,-0.149,-0.1504,-0.1557,-0.1576,-0.1612,-0.1643,-0.1654,-0.171,-0.1748,-0.1796,-0.1848,-0.1872,-0.1898,-0.1912,-0.1882,-0.1887,-0.1884,-0.1884,-0.1866,-0.1867,-0.1907,-0.1907,-0.1906,0,-0.1314,-0.1329,-0.1394,-0.1414,-0.1441,-0.1472,-0.1497,-0.1548,-0.1572,-0.1627,-0.1639,-0.168,-0.1716,-0.1774,-0.182,-0.1861,-0.1876,-0.1868,-0.1883,-0.187,-0.1877,-0.1875,-0.1877,-0.1863,-0.1863,-0.1862,-0.1862,0,-0.1278,-0.1302,-0.1335,-0.1378,-0.1406,-0.1442,-0.148,-0.1494,-0.1553,-0.1579,-0.1618,-0.1645,-0.17,-0.1741,-0.1789,-0.1819,-0.1851,-0.1857,-0.1859,-0.1845,-0.1827,-0.1837,-0.1871,-0.1857,-0.1857,-0.1857,-0.1858,-0.1858,-0.1245,-0.1261,-0.131,-0.1346,-0.1381,-0.1416,-0.1437,-0.1477,-0.151,-0.1559,-0.1588,-0.1626,-0.1674,-0.1742,-0.1771,-0.1803,-0.1815,-0.1818,-0.1818,-0.1818,-0.1814,-0.1823,-0.1812,-0.1812,-0.1812,-0.1813,-0.1813,0,-0.1211,-0.1246,-0.1279,-0.1331,-0.1361,-0.1389,-0.1433,-0.1456,-0.1489,-0.1531,-0.1566,-0.1612,-0.1653,-0.1704,-0.1748,-0.1764,-0.1779,-0.1773,-0.1772,-0.1779,-0.1801,-0.1795,-0.176,-0.176,-0.176,-0.176,-0.176,-0.176,-0.1197,-0.1226,-0.1256,-0.1304,-0.1338,-0.1376,-0.1399,-0.1432,-0.1466,-0.1516,-0.155,-0.1583,-0.163,-0.1678,-0.1717,-0.1732,-0.1746,-0.1736,-0.1754,-0.1773,-0.1777,-0.1782,-0.1776,-0.1738,-0.1738,-0.173,-0.173,-0.173]},{"header":{"parameterUnit":"m.s-1","parameterCategory":1,"la1":30.2991,"la2":30.254,"lo1":-89.0895,"lo2":-89.0444,"dy":0.0017,"dx":0.0017,"nx":28,"ny":28,"refTime":"2024-08-03T03:00:00:Z","depth":0,"parameterNumber":3,"parameterNumberName":"V-component_of_WINDS"},"data":[0,0,0,0,0,0,0,0,0,0,0,0,0,0,0,0,0,0,0,0,0,0,0,0,0,0,0,0,0,0,0,0,0,0,0,0,0,0,0,0,0,0,0,0,0,0,0,0,0,0,0,0,0,0,0,0,0,0,2.0782,2.0784,0,2.0948,2.0949,2.0951,2.0978,2.0976,2.0975,2.0973,2.1143,2.1149,2.1155,0,0,0,0,0,0,0,0,0,0,0,0,0,2.0485,2.0491,2.0782,2.0784,2.0786,2.0947,2.095,2.0952,2.0978,2.0976,2.0974,2.0973,2.1142,2.1148,2.1156,0,0,0,0,0,0,0,0,0,0,0,0,0,2.0629,2.0493,2.0782,2.0819,2.0824,2.0947,2.095,2.0952,2.0978,2.0976,2.0974,2.0972,2.1139,2.1148,2.1157,2.1255,0,0,2.1184,2.1187,0,0,0,0,0,0,0,0,2.0621,2.064,2.0811,2.0816,2.0822,2.094,2.0907,2.1054,2.0979,2.092,2.0973,2.0971,2.1077,2.1091,2.1127,2.1263,2.127,2.1184,2.119,2.1193,2.1196,0,0,0,0,0,0,0,2.0611,2.0633,2.0848,2.0813,2.082,2.0826,2.0844,2.0935,2.1009,2.0925,2.0927,2.0946,2.108,2.1119,2.1131,2.1273,2.1184,2.1192,2.1197,2.1201,2.1491,2.1493,0,0,0,0,0,0,2.0594,2.0624,2.0842,2.0853,2.0714,2.0833,2.0853,2.0904,2.1008,2.1022,2.0948,2.0947,2.1105,2.1121,2.1137,2.1255,2.1193,2.1202,2.1207,2.1488,2.1491,2.1494,0,0,0,0,0,0,2.0588,2.0614,2.0836,2.0739,2.0768,2.084,2.0898,2.0909,2.0947,2.1025,2.1038,2.0974,2.1103,2.1125,2.1224,2.1261,2.1206,2.1214,2.1486,2.1489,2.1493,2.1494,0,0,0,0,0,0,2.0579,2.0611,2.065,2.074,2.0773,2.0921,2.09,2.0913,2.0962,2.0962,2.1053,2.1066,2.1103,2.1211,2.1233,2.1273,2.1221,2.1483,2.1487,2.1492,2.1491,2.1497,2.1502,0,0,0,0,0,2.0569,2.0646,2.0652,2.0679,2.0824,2.0923,2.0942,2.0983,2.0965,2.1004,2.1053,2.1063,2.1254,2.1221,2.1246,2.1289,2.148,2.1486,2.1491,2.1488,2.1496,2.1502,0,0,0,0,0,0,2.0561,2.0658,2.0667,2.0775,2.084,2.0927,2.0978,2.099,2.1062,2.1059,2.1107,2.1127,2.1223,2.1266,2.1227,2.1386,2.1366,2.1376,2.1354,2.1362,2.1368,2.1355,2.1228,0,0,0,0,0,2.0571,2.0644,2.0725,2.0813,2.0845,2.0905,2.095,2.0976,2.1045,2.1073,2.113,2.1197,2.1271,2.132,2.1393,2.1497,2.1515,2.1539,2.1544,2.1549,2.1557,2.161,2.162,2.1512,2.1512,2.1512,0,0,2.0595,2.0657,2.07,2.0813,2.0866,2.0938,2.0929,2.1008,2.1061,2.1086,2.1181,2.1225,2.1302,2.1402,2.145,2.1441,2.159,2.1556,2.1558,2.1565,2.1616,2.1626,2.1635,2.1515,2.1515,2.1514,0,0,2.0673,2.0729,2.0805,2.0858,2.0938,2.0977,2.0995,2.1079,2.1108,2.1205,2.1223,2.1287,2.1416,2.1468,2.1512,2.1604,2.1614,2.1626,2.1656,2.1707,2.1716,2.1724,2.1752,2.1763,2.1635,2.1635,2.1635,0,2.0692,2.0802,2.0844,2.092,2.0967,2.099,2.1066,2.1115,2.1215,2.1246,2.1236,2.1393,2.1448,2.1558,2.158,2.1616,2.1635,2.1616,2.1711,2.172,2.1727,2.1755,2.1767,2.1635,2.1635,2.1635,2.1635,0,2.0819,2.0895,2.0947,2.104,2.1093,2.1169,2.122,2.1269,2.1288,2.1327,2.1422,2.1487,2.1571,2.16,2.1622,2.1712,2.1704,2.1702,2.1682,2.1737,2.1764,2.1776,2.1636,2.1636,2.1636,2.1636,0,0,2.0899,2.101,2.1029,2.1069,2.1156,2.1215,2.129,2.1371,2.141,2.1477,2.1539,2.1645,2.1641,2.1691,2.1718,2.1763,2.1826,2.1755,2.1757,2.1762,2.1924,2.1923,2.1936,2.1833,2.1835,2.1837,2.1917,0,2.0985,2.1119,2.1156,2.1269,2.1337,2.1358,2.1422,2.1482,2.1519,2.1582,2.1623,2.1695,2.1688,2.1717,2.1763,2.1808,2.1858,2.1804,2.1889,2.1891,2.1866,2.195,2.1951,2.2023,2.1928,2.193,2.1931,0,2.1104,2.117,2.1289,2.1363,2.1393,2.1451,2.1524,2.1585,2.1651,2.1675,2.1727,2.1748,2.1825,2.18,2.1904,2.1866,2.1903,2.193,2.1933,2.1942,2.1913,2.1958,2.2048,2.2057,2.1949,2.1947,2.1946,0,2.1146,2.1265,2.135,2.1385,2.1474,2.1513,2.1552,2.1616,2.166,2.1725,2.1753,2.1827,2.1867,2.1922,2.1961,2.1941,2.206,2.2041,2.2079,2.2078,2.2103,2.2101,2.2197,2.2131,2.2131,2.213,2.213,0,2.1236,2.1307,2.1369,2.1421,2.15,2.154,2.1617,2.1657,2.1712,2.1771,2.1794,2.1849,2.1899,2.1959,2.1991,2.2069,2.2088,2.2107,2.2114,2.2104,2.2101,2.2127,2.2122,2.2133,2.2133,2.2132,2.2132,0,2.1296,2.1341,2.1434,2.1509,2.1529,2.1584,2.1647,2.1697,2.1734,2.1808,2.1827,2.1885,2.1956,2.2001,2.2093,2.2114,2.2199,2.2206,2.2176,2.2179,2.2214,2.2209,2.2329,2.2345,2.227,2.2271,2.2272,0,2.135,2.1404,2.1484,2.1524,2.1562,2.1628,2.1672,2.1713,2.1758,2.1834,2.1874,2.1947,2.2007,2.212,2.217,2.2239,2.2246,2.2283,2.2256,2.2242,2.2242,2.2237,2.2241,2.2287,2.2287,2.2288,2.2288,0,2.1439,2.1457,2.152,2.1589,2.1641,2.1698,2.1755,2.1786,2.1836,2.1885,2.1957,2.2004,2.2095,2.2166,2.2238,2.2277,2.229,2.2296,2.2308,2.2297,2.2276,2.2284,2.2185,2.2293,2.2292,2.2292,2.2292,2.2292,2.1496,2.1543,2.1605,2.1672,2.1718,2.177,2.1819,2.186,2.1921,2.1997,2.2018,2.2092,2.2153,2.2251,2.2291,2.2349,2.2343,2.2362,2.2366,2.2369,2.2368,2.2268,2.2362,2.2362,2.2362,2.2362,2.2362,0,2.1583,2.1622,2.1684,2.1761,2.1813,2.182,2.1882,2.1924,2.199,2.2045,2.2102,2.2183,2.225,2.2303,2.2372,2.2408,2.2415,2.2424,2.2421,2.2428,2.2371,2.2352,2.2416,2.2416,2.2416,2.2416,2.2416,2.2416,2.1634,2.1713,2.1737,2.1838,2.1877,2.1949,2.1983,2.2029,2.2073,2.2161,2.2217,2.225,2.2304,2.2375,2.2436,2.245,2.2473,2.248,2.2495,2.2439,2.2433,2.2427,2.241,2.2486,2.2486,2.2547,2.2548,2.2548]}]]